Location: Poughquag
(41.6090°N, 73.6820°W)
Time: 11:37:27
(UTC-04:00)

Tiros 1 despin weight - Pass Details

Date: 03 June 2020
Orbit: 593 x 642 km, 48.2° (Epoch: 07 July)

Event Time Altitude Azimuth Distance (km) Brightness Sun altitude
Rises 10:10:48 0° 240° (WSW) 2,927 ? 51.1°
Reaches altitude 10° 10:13:08 10° 241° (WSW) 2,016 ? 51.5°
Maximum altitude 10:17:48 90° 333° (NNW) 635 ? 52.4°
Drops below altitude 10° 10:22:24 10° 62° (ENE) 1,996 ? 53.2°
Sets 10:24:42 0° 63° (ENE) 2,896 ? 53.6°
